weather.gov     
National Weather Service

Terminal Aerodrome Forecast
NWS Homepage
This page is being discontinued on March 12, 2014.
The same data is available at this site. Please update your bookmarks.
Thank you, and we apologize for the inconvenience.
Please send an email to SR-SRH.Webmaster@noaa.gov with any concerns.


Current Version
Previous Version:    01  02  03  04  05  06  07  08  09  10  11  12  13  14  
[Printable]
721
FTUS41 KCAR 241500 AAC
TAFCAR
TAF AMD
KCAR 241506Z 2415/2512 01012KT P6SM -RA OVC060
      TEMPO 2415/2418 01015G25KT 4SM -RA BR OVC035
     FM241800 36010KT 6SM -RA OVC025
     FM242000 36010KT 6SM -SHRA OVC015
     FM242300 36009KT 6SM -SHRA OVC025
     FM250800 34005KT P6SM OVC025=


U.S. Dept. of Commerce
NOAA National Weather Service
1325 East West Highway
Silver Spring, MD 20910
E-mail: w-nws.webmaster@noaa.gov
Page last modified: May 16, 2007
NATIONAL WEATHER SERVICE: for Safety, for Work, for Fun - FOR LIFE